Weather History for Topcliffe RAF, United Kingdom

Change the Weather History Date:

Sunday, December 16, 2012

  Actual Average Record
Temperature  
Mean Temperature 36 °F -  
Max Temperature 41 °F 43 °F - ()
Min Temperature 32 °F 34 °F - ()
Degree Days  
Heating Degree Days 28    
Moisture  
Dew Point 36 °F    
Average Humidity 99    
Maximum Humidity 100    
Minimum Humidity 93    
Precipitation  
Precipitation 0.00 in - - ()
Sea Level Pressure  
Sea Level Pressure 29.40 in    
Wind  
Wind Speed 8 mph ()    
Max Wind Speed 12 mph    
Max Gust Speed -    
Visibility 1.8 miles    
Events Fog , Rain    
T = Trace of Precipitation, MM = Missing Value Source: Averaged Metar Reports

Daily Weather History Graph

Daily Weather History Graph

Search for Another Location

Airport:

Trip Planner

Search our weather history database for the weather conditions in past years. The results will help you decide how hot, cold, wet, or windy it might be!

Date:

Astronomy

Dec. 16, 2012 Rise Set
Actual Time 8:20 AM GMT 3:42 PM GMT
Civil Twilight 7:36 AM GMT 4:26 PM GMT
Nautical Twilight 6:50 AM GMT 5:12 PM GMT
Astronomical Twilight 6:06 AM GMT 5:56 PM GMT
Moon 10:18 AM GMT (12/16) 8:09 PM GMT (12/16)
Length of Visible Light 8h 49m
Length of Day
7h 21m
Waxing Crescent, 14% of the Moon is Illuminated
Dec 16
Waxing Crescent
Dec 20
First Quarter
Dec 28
Full
Jan 5
Last Quarter
Jan 11
New

Hourly Weather History & Observations

Time (GMT) Temp. Windchill Dew Point Humidity Pressure Visibility Wind Dir Wind Speed Gust Speed Precip Events Conditions
12:50 AM 35.6 °F 29.2 °F 35.6 °F 100% 29.33 in 1.6 mi South 8.1 mph - N/A   Scattered Clouds
1:50 AM 33.8 °F 26.4 °F 33.8 °F 100% 29.33 in 1.2 mi SE 9.2 mph - N/A   Partly Cloudy
2:50 AM 33.8 °F 27.0 °F 33.8 °F 100% 29.36 in 1.0 mi SE 8.1 mph - N/A   Mist
3:50 AM 35.6 °F 29.2 °F 35.6 °F 100% 29.36 in - SE 8.1 mph - N/A   Mist
4:50 AM 32.0 °F 24.2 °F 32.0 °F 100% 29.36 in 1.3 mi SE 9.2 mph - N/A   Mist
5:50 AM 33.8 °F 27.7 °F 33.8 °F 100% 29.39 in 1.3 mi ESE 6.9 mph - N/A   Mostly Cloudy
6:50 AM 33.8 °F 25.8 °F 33.8 °F 100% 29.39 in 1.3 mi SSE 10.4 mph - N/A   Partly Cloudy
7:50 AM 33.8 °F 27.0 °F 33.8 °F 100% 29.42 in 1.6 mi ENE 8.1 mph - N/A   Partly Cloudy
8:50 AM 33.8 °F 27.0 °F 33.8 °F 100% 29.42 in 1.9 mi SE 8.1 mph - N/A   Mostly Cloudy
9:50 AM 35.6 °F 29.9 °F 35.6 °F 100% 29.44 in - ESE 6.9 mph - N/A   Mostly Cloudy
10:50 AM 39.2 °F 34.2 °F 39.2 °F 100% 29.44 in 3.1 mi ESE 6.9 mph - N/A   Partly Cloudy
11:50 AM 41.0 °F 35.8 °F 39.2 °F 93% 29.44 in 4.3 mi SE 8.1 mph - N/A   Mist
12:50 PM 41.0 °F 35.2 °F 39.2 °F 93% 29.44 in 4.3 mi SE 9.2 mph - N/A   Mist
1:50 PM 37.4 °F 30.3 °F 37.4 °F 100% 29.44 in 0.2 mi ESE 10.4 mph - N/A Fog Fog
2:50 PM 35.6 °F 29.9 °F 35.6 °F 100% 29.44 in 0.9 mi SE 6.9 mph - N/A   Partly Cloudy
3:50 PM 35.6 °F 29.2 °F 35.6 °F 100% 29.42 in 1.4 mi ESE 8.1 mph - N/A   Unknown
4:50 PM 33.8 °F 26.4 °F 33.8 °F 100% 29.42 in 0.5 mi SE 9.2 mph - N/A Fog Fog
5:50 PM 35.6 °F 28.6 °F 35.6 °F 100% 29.42 in 1.7 mi ESE 9.2 mph - N/A   Unknown
6:50 PM 35.6 °F 28.0 °F 35.6 °F 100% 29.42 in 1.5 mi SE 10.4 mph - N/A   Partly Cloudy
7:50 PM 35.6 °F 28.0 °F 35.6 °F 100% 29.42 in 1.8 mi ESE 10.4 mph - N/A   Partly Cloudy
8:50 PM 37.4 °F 29.8 °F 37.4 °F 100% 29.39 in 1.7 mi ESE 11.5 mph - N/A   Mostly Cloudy
9:50 PM 39.2 °F 32.5 °F 39.2 °F 100% 29.39 in - SE 10.4 mph - N/A   Scattered Clouds
10:50 PM 39.2 °F 33.0 °F 39.2 °F 100% 29.39 in 2.8 mi SE 9.2 mph - N/A Rain Light Rain Showers
11:50 PM 39.2 °F 32.5 °F 39.2 °F 100% 29.36 in - SE 10.4 mph - N/A Rain Light Rain